Location: Unspecified
(35.7250°N, 0.0000°E)
Time: 05:52:21
(UTC+00:00)

Vanguard 1 - Pass Details

Date: 30 June 2019
Orbit: 653 x 3830 km, 34.3° (Epoch: 12 October)

Event Time Altitude Azimuth Distance (km) Brightness Sun altitude
Rises 01:17:22 0° 250° (WSW) 7,946 14.4 -28.5°
Reaches altitude 10° 01:22:50 10° 250° (WSW) 6,928 14.0 -28.2°
Maximum altitude 01:45:52 80° 168° (SSE) 3,112 12.3 -26.3°
Drops below altitude 10° 02:00:03 10° 84° (E) 4,583 13.9 -25.0°
Sets 02:02:51 0° 83° (E) 5,256 14.3 -24.7°
